TimeCDT,TemperatureF,Dew PointF,Humidity,Sea Level PressureIn,VisibilityMPH,Wind Direction,Wind SpeedMPH,Gust SpeedMPH,PrecipitationIn,Events,Conditions,WindDirDegrees,DateUTC
12:53 AM,72.0,63.0,73,30.09,10.0,NE,5.8,-,N/A,,Mostly Cloudy,40,2011-10-24 05:53:00
1:53 AM,70.0,63.0,78,30.08,10.0,NE,3.5,-,N/A,,Partly Cloudy,50,2011-10-24 06:53:00
2:53 AM,68.0,63.0,84,30.08,10.0,ENE,4.6,-,N/A,,Clear,60,2011-10-24 07:53:00
3:53 AM,66.9,63.0,87,30.08,10.0,NNE,5.8,-,N/A,,Clear,30,2011-10-24 08:53:00
4:53 AM,66.0,63.0,90,30.09,10.0,NE,4.6,-,N/A,,Partly Cloudy,40,2011-10-24 09:53:00
5:53 AM,66.0,63.0,90,30.10,10.0,East,3.5,-,N/A,,Clear,80,2011-10-24 10:53:00
6:53 AM,64.0,62.1,93,30.12,8.0,Calm,Calm,-,N/A,,Clear,0,2011-10-24 11:53:00
7:53 AM,64.0,63.0,96,30.14,5.0,NNE,4.6,-,N/A,,Clear,20,2011-10-24 12:53:00
8:53 AM,66.9,64.0,90,30.15,6.0,ENE,5.8,-,N/A,,Clear,70,2011-10-24 13:53:00
9:53 AM,69.8,64.4,83,30.18,10.0,Calm,Calm,-,N/A,,Clear,0,2011-10-24 14:53:00
10:53 AM,77.0,64.9,66,30.17,10.0,Calm,Calm,-,N/A,,Clear,0,2011-10-24 15:53:00
11:53 AM,79.0,64.9,62,30.17,10.0,ENE,3.5,-,N/A,,Clear,70,2011-10-24 16:53:00
12:53 PM,84.0,64.9,53,30.15,10.0,Calm,Calm,-,N/A,,Clear,0,2011-10-24 17:53:00
1:53 PM,84.2,62.6,48,30.13,10.0,Variable,4.6,-,N/A,,Clear,0,2011-10-24 18:53:00
2:53 PM,88.0,55.9,34,30.09,10.0,NE,6.9,-,N/A,,Clear,50,2011-10-24 19:53:00
3:53 PM,88.0,55.0,32,30.08,10.0,Variable,5.8,-,N/A,,Clear,0,2011-10-24 20:53:00
4:53 PM,87.1,55.0,33,30.08,10.0,Calm,Calm,-,N/A,,Clear,0,2011-10-24 21:53:00
5:53 PM,87.1,55.9,35,30.08,10.0,Calm,Calm,-,N/A,,Clear,0,2011-10-24 22:53:00
6:53 PM,82.4,55.4,39,30.10,10.0,East,3.5,-,N/A,,Clear,80,2011-10-24 23:53:00
7:53 PM,79.0,55.0,44,30.10,10.0,Calm,Calm,-,N/A,,Clear,0,2011-10-25 00:53:00
8:53 PM,75.2,55.4,50,30.12,10.0,SE,3.5,-,N/A,,Clear,140,2011-10-25 01:53:00
9:53 PM,75.0,57.9,55,30.12,10.0,SSE,4.6,-,N/A,,Clear,150,2011-10-25 02:53:00
10:53 PM,73.0,59.0,61,30.12,10.0,SE,4.6,-,N/A,,Scattered Clouds,130,2011-10-25 03:53:00
11:53 PM,73.9,62.1,66,30.12,10.0,South,8.1,-,N/A,,Scattered Clouds,180,2011-10-25 04:53:00